Location: Staunton
(38.1490°N, 79.0720°W)
Time: 09:16:48
(UTC-04:00)

ISS - Pass Details

Date: 14 October 2017
Orbit: 401 x 408 km, 51.6° (Epoch: 18 October)

Event Time Altitude Azimuth Distance (km) Brightness Sun altitude
Rises 19:25:59 0° 312° (NW) 2,322 0.7 -9.9°
Reaches altitude 10° 19:28:06 10° 318° (NW) 1,461 -0.4 -10.3°
Maximum altitude 19:31:19 53° 36° (NE) 504 -3.6 -11.0°
Enters shadow 19:33:40 17° 110° (ESE) 1,122 -2.2 -11.4°
